[Iaude] MPEC Y03: 2023 XT14 [a=1.65,e=0.41,i=3.9,H=25.7]

mpec at marsden.cfa.harvard.edu mpec at marsden.cfa.harvard.edu
Fri Dec 15 23:38:04 EST 2023


M.P.E.C. 2023-Y03                             Issued 2023 December 16, 04:36 UT

     The Minor Planet Electronic Circulars contain information on unusual
         minor planets, routine data on comets and natural satellites,
         and occasional editorial announcements.  They are published
    on behalf of Division F of the International Astronomical Union by the
          Minor Planet Center, Smithsonian Astrophysical Observatory,
                          Cambridge, MA 02138, U.S.A.
			  
             Prepared using the Tamkin Foundation Computer Network

                              MPC at CFA.HARVARD.EDU
            URL https://www.minorplanetcenter.net/    ISSN 1523-6714

                                   2023 XT14                                    


Observations:
     K23X14T*1C2023 12 14.26562504 35 28.669+27 05 28.39         21.09GVEY003G96
     K23X14T 1C2023 12 14.27129404 35 28.813+27 05 19.43         21.03GVEY003G96
     K23X14T 1C2023 12 14.27696504 35 28.903+27 05 10.50         21.57GVEY003G96
     K23X14T 1C2023 12 14.28259404 35 29.144+27 05 01.86         20.95GVEY003G96
     K23X14T KC2023 12 14.35058504 35 30.890+27 03 09.40         21.22GVEY003I52
     K23X14T KC2023 12 14.35274404 35 30.966+27 03 05.33         21.63GVEY003I52
     K23X14T KC2023 12 14.35489904 35 31.050+27 03 02.10               VEY003I52
     K23X14T KC2023 12 14.35705504 35 31.210+27 02 58.80               VEY003I52
     K23X14T KC2023 12 14.36914404 35 31.427+27 02 38.15         22.53GVEY003I52
     K23X14T KC2023 12 15.15989604 36 22.28 +26 40 42.4          21.8 GVEY003H21
     K23X14T KC2023 12 15.16605404 36 22.45 +26 40 32.2          21.6 GVEY003H21
     K23X14T KC2023 12 15.17336804 36 22.74 +26 40 19.8          22.1 GVEY003H21
     K23X14T KC2023 12 16.15266404 37 29.006+26 11 14.17         21.13GVEY003I52
     K23X14T KC2023 12 16.15810004 37 29.280+26 11 05.28         21.56GVEY003I52
     K23X14T KC2023 12 16.16351604 37 29.503+26 10 56.06         21.59GVEY003I52
     K23X14T KC2023 12 16.16829004 37 29.712+26 10 47.03         21.91GVEY003I52

Observer details:
G96 Mt. Lemmon Survey.  Observer J. K. Hogan.  Measurers E. C. Beshore, D.
    Fay, J. B. Fazekas, D. C. Fuls, A. R. Gibbs, A. D. Grauer, H. Groeller, J.
    K. Hogan, R. A. Kowalski, S. M. Larson, G. J. Leonard, D. Rankin, R. L.
    Seaman, F. C. Shelly, K. W. Wierzchos.  1.5-m reflector + 10K CCD.
H21 Astronomical Research Observatory, Westfield.  Observer R. Holmes.
    Measurers T. Linder, R. Holmes, L. Horn.  1.3-m f/4.0 astrograph + CCD.
I52 Steward Observatory, Mt. Lemmon Station.  Observer K. W. Wierzchos.
    Measurers E. C. Beshore, D. Fay, J. B. Fazekas, D. C. Fuls, A. R. Gibbs,
    A. D. Grauer, H. Groeller, J. K. Hogan, R. A. Kowalski, S. M. Larson, G.
    J. Leonard, D. Rankin, R. L. Seaman, F. C. Shelly, K. W. Wierzchos.  1.0-m
    prime focus + CCD.

Orbital elements:
2023 XT14                                                Earth MOID = 0.0300 AU
Epoch 2023 Sept. 13.0 TT = JDT 2460200.5                MPC                     
M 296.56524              (2000.0)            P               Q                  
n   0.46335478     Peri.  222.11715     -0.64457733     -0.76151107             
a   1.6539674      Node   268.13326     +0.71834536     -0.57279532             
e   0.4054717      Incl.    3.89991     +0.26172507     -0.30332559             
P   2.13           H   25.75          G   0.15           U   9                  
Residuals in seconds of arc
231214 G96  0.0   0.1-    231214 I52  0.6+  0.3+    231216 I52  0.3-  0.3-
231214 G96  0.1+  0.0     231214 I52  1.9+  0.7+    231216 I52  0.2+  0.2+
231214 G96  0.6-  0.1+    231214 I52  0.1-  0.6+    231216 I52  0.1+  0.4+
231214 G96  0.8+  0.5+    231215 H21  0.0   0.1-    231216 I52  0.2+  0.3-
231214 I52  0.1+  0.3+    231215 H21  0.4-  0.0
231214 I52  0.3+  0.1-    231215 H21  0.2+  0.1-

Ephemeris:
2023 XT14                a,e,i = 1.65, 0.41, 4                   q = 0.9833
Date    TT    R. A. (2000) Decl.     Delta      r    Elong.  Phase     V
2023 11 16    04 24 19.7 +31 26 17   0.2645  1.2422   161.0    15.0    24.2
...
2023 12 01    04 28 39.7 +30 36 47   0.1755  1.1598   171.0     7.6    22.8
...
2023 12 09    04 31 44.1 +28 58 40   0.1359  1.1195   171.0     7.9    22.2
...
2023 12 15    04 36 11.2 +26 45 34   0.1093  1.0915   168.0    10.8    21.8
2023 12 16    04 37 15.1 +26 16 14   0.1051  1.0871   167.4    11.4    21.7
2023 12 17    04 38 26.5 +25 44 21   0.1009  1.0827   166.7    12.0    21.7
...
2023 12 23    04 49 04.7 +21 21 48   0.07745 1.0580   162.9    15.8    21.2
...
2023 12 31    05 19 48.8 +09 30 28   0.05009 1.0296   156.9    22.0    20.4
...
2024 01 15    09 23 06.4 -50 05 31   0.03508 0.9934   105.3    72.8    21.0

A. U. Tomatic                (C) Copyright 2023 MPC           M.P.E.C. 2023-Y03




More information about the Iaude mailing list